| time (UTC) | temp F | wind direction | speed knots | gust knots | rain 1hr in | rain 24hr in | rain mn in | humidity % | barometer mb |
| 20260503010304 | 56 | 138 | 0.0 | 2.6 | 0.00 | 0.54 | 0.01 | 96 | 1013.2 |
| 20260503000803 | 57 | 122 | 0.9 | 2.6 | 0.00 | 0.54 | 0.01 | 95 | 1013.7 |
| 20260503000304 | 57 | 117 | 0.9 | 2.6 | 0.00 | 0.54 | 0.01 | 95 | 1013.8 |
| 20260502220304 | 57 | 19 | 0.9 | 6.1 | 0.17 | 0.54 | 0.01 | 93 | 1014.3 |
| 20260502210304 | 59 | 342 | 5.2 | 19.1 | 0.39 | 0.39 | 0.39 | 90 | 1015.1 |
| 20260502200304 | 66 | 66 | 1.7 | 7.8 | 0.00 | 0.00 | 0.00 | 77 | 1014.2 |
| 20260502190804 | 68 | 80 | 0.9 | 1.7 | 0.00 | 0.00 | 0.00 | 73 | 1014.6 |
| 20260502170306 | 72 | 321 | 0.9 | 4.3 | 0.00 | 0.00 | 0.00 | 64 | 1014.8 |
| 20260502160304 | 76 | 276 | 0.9 | 6.1 | 0.00 | 0.00 | 0.00 | 54 | 1015.4 |
| 20260502150804 | 76 | 218 | 0.9 | 2.6 | 0.00 | 0.00 | 0.00 | 54 | 1016.2 |
| 20260502150303 | 76 | 222 | 1.7 | 7.8 | 0.00 | 0.00 | 0.00 | 55 | 1016.3 |
| 20260502130304 | 76 | 211 | 1.7 | 10.4 | 0.00 | 0.00 | 0.00 | 55 | 1017.7 |
| 20260502120304 | 74 | 199 | 3.5 | 8.7 | 0.00 | 0.00 | 0.00 | 59 | 1018.5 |
| 20260502110804 | 76 | 194 | 3.5 | 7.8 | 0.00 | 0.00 | 0.00 | 56 | 1019.0 |
| 20260502100804 | 75 | 196 | 1.7 | 5.2 | 0.00 | 0.00 | 0.00 | 56 | 1019.5 |
| 20260502100303 | 75 | 252 | 2.6 | 8.7 | 0.00 | 0.00 | 0.00 | 59 | 1019.5 |
| 20260502090804 | 70 | 182 | 0.9 | 2.6 | 0.00 | 0.00 | 0.00 | 61 | 1019.7 |
| 20260502070304 | 58 | 198 | 1.7 | 4.3 | 0.00 | 0.00 | 0.00 | 69 | 1019.9 |
| 20260502060804 | 55 | 232 | 0.0 | 0.0 | 0.00 | 0.00 | 0.00 | 71 | 1019.8 |
| 20260502050804 | 55 | 227 | 0.9 | 1.7 | 0.00 | 0.00 | 0.00 | 65 | 1019.6 |
| 20260502040304 | 47 | 118 | 0.0 | 0.0 | 0.00 | 0.00 | 0.00 | 81 | 1019.4 |
| 20260502030804 | 45 | 118 | 0.0 | 0.0 | 0.00 | 0.00 | 0.00 | 81 | 1019.8 |